DW8816 Weather Reports


time (UTC)temp
C
wind
direction
speed
KPH
gust
KPH
rain 1hr
cm
rain 24hr
cm
rain mn
cm
humidity
%
barometer
mb
20190223230007 7 0 0.0 0.0 0.00 0.00 0.00 85 1033.4
20190223225006 7 0 0.0 0.0 0.00 0.00 0.00 84 1033.3
20190223224006 8 0 0.0 0.0 0.00 0.00 0.00 83 1033.4
20190223223007 8 0 0.0 0.0 0.00 0.00 0.00 83 1033.3
20190223222005 8 122 1.6 3.2 0.00 0.00 0.00 82 1033.2
20190223221005 8 0 0.0 4.8 0.00 0.00 0.00 83 1033.1
20190223220006 8 0 0.0 0.0 0.00 0.00 0.00 84 1033.2
20190223215005 8 0 0.0 3.2 0.00 0.00 0.00 83 1033.3
20190223214006 8 0 0.0 1.6 0.00 0.00 0.00 83 1033.4
20190223213007 8 0 0.0 0.0 0.00 0.00 0.00 83 1033.3
20190223212005 8 122 0.0 3.2 0.00 0.00 0.00 83 1033.4
20190223211006 8 0 0.0 0.0 0.00 0.00 0.00 83 1033.5
20190223210007 9 0 0.0 0.0 0.00 0.00 0.00 83 1033.4
20190223205005 9 0 0.0 1.6 0.00 0.00 0.00 83 1033.3
20190223204005 9 0 0.0 4.8 0.00 0.00 0.00 83 1033.1
20190223203006 9 0 0.0 0.0 0.00 0.00 0.00 83 1033.1
20190223202005 10 0 0.0 0.0 0.00 0.00 0.00 82 1032.9
20190223201005 10 0 0.0 0.0 0.00 0.00 0.00 82 1032.8
20190223200007 10 0 0.0 0.0 0.00 0.00 0.00 82 1032.8
20190223195005 10 0 0.0 0.0 0.00 0.00 0.00 82 1032.9
20190223194005 10 0 0.0 0.0 0.00 0.00 0.00 81 1032.9
20190223193007 10 0 0.0 0.0 0.00 0.00 0.00 80 1032.8
20190223192005 11 0 0.0 0.0 0.00 0.00 0.00 79 1032.6
20190223191005 11 0 0.0 0.0 0.00 0.00 0.00 79 1032.5
20190223190007 11 0 0.0 0.0 0.00 0.00 0.00 79 1032.5
20190223185006 11 0 0.0 0.0 0.00 0.00 0.00 79 1032.5
20190223184005 11 0 0.0 0.0 0.00 0.00 0.00 78 1032.5
20190223183006 12 0 0.0 0.0 0.00 0.00 0.00 77 1032.3
20190223182006 12 0 0.0 0.0 0.00 0.00 0.00 75 1032.2
20190223181005 12 0 0.0 0.0 0.00 0.00 0.00 74 1032.2
20190223180007 12 0 0.0 1.6 0.00 0.00 0.00 73 1032.0
20190223175006 13 0 0.0 0.0 0.00 0.00 0.00 72 1032.0
20190223174005 13 0 0.0 0.0 0.00 0.00 0.00 70 1031.9
20190223173006 13 0 0.0 0.0 0.00 0.00 0.00 69 1031.9
20190223172005 14 0 0.0 3.2 0.00 0.00 0.00 67 1031.8
20190223171006 15 0 0.0 1.6 0.00 0.00 0.00 65 1031.7
20190223170007 15 0 0.0 3.2 0.00 0.00 0.00 64 1031.5
20190223165006 15 219 1.6 8.0 0.00 0.00 0.00 63 1031.5
20190223164005 15 176 1.6 8.0 0.00 0.00 0.00 62 1031.6
20190223163006 15 190 1.6 6.4 0.00 0.00 0.00 62 1031.6
20190223162005 15 178 1.6 6.4 0.00 0.00 0.00 61 1031.5
20190223161005 16 201 1.6 4.8 0.00 0.00 0.00 61 1031.4
20190223160006 16 172 3.2 8.0 0.00 0.00 0.00 60 1031.4
20190223155006 16 170 3.2 9.7 0.00 0.00 0.00 60 1031.3
20190223154006 16 195 4.8 11.3 0.00 0.00 0.00 59 1031.3
20190223153007 16 189 3.2 9.7 0.00 0.00 0.00 60 1031.3
20190223152005 16 187 4.8 12.9 0.00 0.00 0.00 59 1031.3
20190223151006 16 177 3.2 11.3 0.00 0.00 0.00 61 1031.4
20190223150006 16 188 1.6 12.9 0.00 0.00 0.00 61 1031.5
20190223145005 16 171 1.6 8.0 0.00 0.00 0.00 63 1031.5
20190223144006 16 156 3.2 9.7 0.00 0.00 0.00 62 1031.5
20190223143006 16 152 3.2 9.7 0.00 0.00 0.00 61 1031.5
20190223142005 16 188 3.2 9.7 0.00 0.00 0.00 65 1031.6
20190223141005 16 155 3.2 11.3 0.00 0.00 0.00 65 1031.7
20190223140006 16 140 4.8 12.9 0.00 0.00 0.00 66 1031.8
20190223135006 16 161 4.8 14.5 0.00 0.00 0.00 65 1031.7
20190223134005 16 160 3.2 11.3 0.00 0.00 0.00 66 1031.8
20190223133006 16 152 3.2 6.4 0.00 0.00 0.00 66 1032.0
20190223132006 15 194 3.2 11.3 0.00 0.00 0.00 67 1032.1
20190223131006 15 152 3.2 11.3 0.00 0.00 0.00 69 1032.2
20190223130006 15 185 4.8 8.0 0.00 0.00 0.00 72 1032.3
20190223125005 15 149 3.2 11.3 0.00 0.00 0.00 71 1032.3
20190223124006 15 174 3.2 9.7 0.00 0.00 0.00 74 1032.4
20190223123006 15 178 3.2 9.7 0.00 0.00 0.00 72 1032.5
20190223122006 14 191 3.2 8.0 0.00 0.00 0.00 74 1032.6
20190223121005 13 158 3.2 9.7 0.00 0.00 0.00 74 1032.7
20190223120006 13 176 3.2 8.0 0.00 0.00 0.00 74 1032.9
20190223115005 13 208 3.2 9.7 0.00 0.00 0.00 77 1032.8
20190223114005 13 190 3.2 9.7 0.00 0.00 0.00 79 1032.8
20190223113006 12 174 3.2 8.0 0.00 0.00 0.00 82 1032.8
20190223112005 11 157 3.2 9.7 0.00 0.00 0.00 85 1032.7
20190223111005 10 126 3.2 12.9 0.00 0.00 0.00 87 1032.7
20190223110006 10 144 1.6 6.4 0.00 0.00 0.00 90 1032.9
20190223105005 10 184 1.6 8.0 0.00 0.00 0.00 92 1033.0
20190223104005 9 138 1.6 6.4 0.00 0.00 0.00 94 1033.1
20190223103006 8 188 1.6 6.4 0.00 0.00 0.00 95 1033.1
20190223102005 8 188 3.2 6.4 0.00 0.00 0.00 95 1033.2
20190223101005 8 185 0.0 6.4 0.00 0.00 0.00 96 1033.1
20190223100006 8 0 0.0 6.4 0.00 0.00 0.00 96 1033.0
20190223095005 8 0 0.0 6.4 0.00 0.00 0.00 96 1033.0
20190223094005 8 199 0.0 3.2 0.00 0.00 0.00 96 1033.0
20190223093006 7 193 1.6 6.4 0.00 0.00 0.00 96 1033.2
20190223092006 7 196 1.6 8.0 0.00 0.00 0.00 96 1033.2
20190223091006 7 189 0.0 6.4 0.00 0.00 0.00 96 1033.4
20190223090009 7 192 0.0 4.8 0.00 0.00 0.00 96 1033.3
20190223085005 7 0 0.0 6.4 0.00 0.00 0.00 96 1033.2
20190223084006 7 0 0.0 3.2 0.00 0.00 0.00 96 1033.3
20190223083006 7 0 0.0 4.8 0.00 0.00 0.00 96 1033.4
20190223082005 7 0 0.0 0.0 0.00 0.00 0.00 96 1033.5
20190223081005 7 0 0.0 0.0 0.00 0.00 0.00 96 1033.5
20190223080006 7 0 0.0 0.0 0.00 0.00 0.00 96 1033.6
20190223075006 7 0 0.0 3.2 0.00 0.00 0.00 95 1033.5
20190223074006 7 0 0.0 4.8 0.00 0.00 0.00 95 1033.4
20190223073006 7 0 0.0 3.2 0.00 0.00 0.00 95 1033.3
20190223072005 7 0 0.0 3.2 0.00 0.00 0.00 95 1033.1
20190223071005 7 108 0.0 3.2 0.00 0.00 0.00 95 1033.0
20190223070006 7 108 1.6 4.8 0.00 0.00 0.00 95 1033.0
20190223065005 7 109 1.6 6.4 0.00 0.00 0.00 95 1032.8
20190223064005 7 106 0.0 6.4 0.00 0.00 0.00 95 1032.9
20190223063006 7 107 0.0 4.8 0.00 0.00 0.00 95 1032.9
20190223062006 7 84 1.6 6.4 0.00 0.00 0.00 95 1032.8
20190223061005 7 116 1.6 9.7 0.00 0.00 0.00 95 1032.8
20190223060007 7 0 0.0 6.4 0.00 0.00 0.00 95 1032.8
20190223055005 7 131 1.6 3.2 0.00 0.00 0.00 95 1032.8
20190223054005 7 108 1.6 4.8 0.00 0.00 0.00 95 1032.7
20190223053006 7 0 0.0 6.4 0.00 0.00 0.00 95 1032.7
20190223052006 7 76 0.0 1.6 0.00 0.00 0.00 95 1032.7
20190223051005 7 90 1.6 9.7 0.00 0.00 0.00 95 1032.7
20190223050006 7 95 1.6 4.8 0.00 0.00 0.00 95 1032.7
20190223045005 7 105 1.6 9.7 0.00 0.00 0.00 95 1032.7
20190223044005 7 126 1.6 4.8 0.00 0.00 0.00 95 1032.6
20190223043006 7 108 3.2 9.7 0.00 0.00 0.00 95 1032.6
20190223042005 7 110 1.6 9.7 0.00 0.00 0.00 95 1032.7
20190223041007 7 101 0.0 11.3 0.00 0.00 0.00 95 1032.7
20190223040006 7 97 1.6 9.7 0.00 0.00 0.00 95 1032.7
20190223035005 7 108 3.2 11.3 0.00 0.00 0.00 95 1032.7
20190223034005 7 109 3.2 9.7 0.00 0.00 0.00 95 1032.7
20190223033020 7 106 1.6 9.7 0.00 0.00 0.00 95 1032.8
20190223032005 7 103 1.6 11.3 0.00 0.00 0.00 95 1032.8
20190223031005 7 105 1.6 9.7 0.00 0.00 0.00 95 1032.9
20190223030006 7 105 1.6 9.7 0.00 0.00 0.00 95 1033.0
20190223025006 7 123 1.6 6.4 0.00 0.00 0.00 95 1033.0
20190223024005 7 98 1.6 11.3 0.00 0.00 0.00 95 1033.1
20190223023006 7 106 0.0 4.8 0.00 0.00 0.00 95 1033.2
20190223022006 7 99 1.6 6.4 0.00 0.00 0.00 95 1033.2
20190223021005 7 131 1.6 8.0 0.00 0.00 0.00 95 1033.2
20190223020006 7 112 1.6 6.4 0.00 0.00 0.00 95 1033.3
20190223015005 7 130 3.2 9.7 0.00 0.00 0.00 95 1033.4
20190223014005 7 117 1.6 9.7 0.00 0.00 0.00 94 1033.5
20190223013006 6 115 3.2 9.7 0.00 0.00 0.00 94 1033.5
20190223012006 6 114 3.2 12.9 0.00 0.00 0.00 94 1033.5
20190223011005 6 111 4.8 12.9 0.00 0.00 0.00 94 1033.5
20190223010006 6 120 3.2 12.9 0.00 0.00 0.00 94 1033.5
20190223005005 6 121 1.6 14.5 0.00 0.00 0.00 94 1033.4
20190223004006 6 115 1.6 9.7 0.00 0.00 0.00 93 1033.5
20190223003006 6 110 3.2 11.3 0.00 0.00 0.00 93 1033.4
20190223002005 6 118 3.2 12.9 0.00 0.00 0.00 92 1033.5
20190223001005 6 114 1.6 9.7 0.00 0.00 0.00 92 1033.5
20190223000006 6 121 1.6 8.0 0.00 0.00 0.00 92 1033.5
20190222235005 6 109 1.6 9.7 0.00 0.00 0.00 92 1033.5
20190222234005 6 103 1.6 6.4 0.00 0.00 0.00 91 1033.5
20190222233006 6 110 0.0 6.4 0.00 0.00 0.00 91 1033.6
20190222232006 6 0 0.0 3.2 0.00 0.00 0.00 90 1033.7
20190222231005 6 0 0.0 0.0 0.00 0.00 0.00 90 1033.8